Forside
METAR-TAF:

METAR-TAF

Lufthavne :

Delta County Airport

Escanaba, Michigan, USA

Breddekreds: 45-45N, længdekreds: 087-02W, højde: 180 m

Aktuelle vejr

Denne rapport blev lavet for 10 minutter siden, kl. 07:56 UTC
Vind 3 kt fra sydvest
Temperatur 1°C
Fugtighed 75%
Tryk 1010 hPa
Sigt: 16.1 km
skyfri

METAR: KESC 290756Z AUTO 23003KT 10SM CLR 01/M03 A2982 RMK AO2 SLP107 T00111033 FZRANO

Tid: 03:06 (08:06 UTC)


TAF: fraværende

Vejrobservationer og prognoser fra mere end 4000 lufthavne (METAR og TAF).

De gule og røde prikker repræsenterer de meteorologiske stationer.

Flyt musen over at se navnet på stationen.

Så klik over at se vejr observationer og prognoser.

At skifte det kort: Klik på de grønne knapper med et sort kors for at zoome ind; på den grønne knap med en bindestreg for at zoome ud; eller på de grønne pile for tilstødende kort.


METAR-TAF: